To NAV CANADA Home Page Login to a new session Search on AWWS site Disclaimer Vers la page française équivalente Tips FAQ What's new on the site To the Forecasts and Observations / NOTAM section To "File a Flight Plan" website Publications and other links Update of the User's profile FIC Telephone Numbers My Weather Data Folder Route Weather Data Regional Weather Data Local Weather Data To the Forecasts and Observations / NOTAM section
Request Generated 01/26/2023 at 21:51:24 UTC . Weather information available at that time is displayed.

METAR/TAF

TULITA/NT    (show WxCam)

LWIS CZFN 262100Z AUTO 23003KT M18/M21 A3033=
LWIS CZFN 262000Z AUTO VRB02KT M18/M20 A3031=
LWIS CZFN 261900Z AUTO 00000KT M18/M20 A3030=

CZFN - No TAF is issued for this station

Your time UTC time
Weather data provided by Environment Canada and NAV CANADA